SCOUT B DEB, 28793

Orbit data source: Space-Track

SCOUT B DEB, 28793 is space debris in LEO originally from a launch on Tue, 10 Aug 1965 UTC launched from the Wallops Island (WLPIS). Debris objects in space refer to the collection of defunct objects orbiting the Earth. Examples of debris include non-operational satellites, rocket bodies, and fragments generated from explosions, collisions, or faulty payload assembly.

Loading next visibility...
Identifier
28793, 1965-063C
Orbit
LEO
Country
Flag of USUS
Related business
Manufacturer
Unknown
Mission
Spacecraft
Bus & Motor
Unknown
Mass
Unknown
Launch date (UTC)
1965-08-10 (61 years ago)
Launch vehicle
Unknown
Launch site
Wallops Island (WLPIS)
Object type
Payload
Rocket body
Debris
Shape & HBR
Unknown shape, 0.1 m
Radar Cross Section
Small (<0.1 m²)

Expand to show TLE details & history
Last TLE update: 2 days ago

TLE from 2 days ago
0 SCOUT B DEB
1 28793U 65063C   26066.49222093  .00000102  00000-0  58808-3 0  9995
2 28793  69.1870  97.5296 0759822  50.4771 316.0922 12.13193139464221
Epoch: 2026-03-07T11:48Z
TLE epoch observation values (Epoch: 2026-03-07T11:48:47.888Z)
Latitude
-0.00002°
Longitude
115.11696°
Altitude
1,210.496 km
Speed
7.434 km/s
True Right ascension
06h 30m 07s
True Declination
0° 00' 00"
Sunlit
Object was in daylight at epoch
Visualization orbit readout
Latitude
Unknown
Longitude
Unknown
Altitude
Unknown
Speed
Unknown
Apparent Right ascension
Unknown
Apparent Declination
Unknown
Sunlit
N/A
Visualization observer readout
Local Sidereal Time
16:11:18
Azimuth
Unknown
Elevation
Unknown
Doppler factor
Unknown
Orbital elements
Apogee altitude
2,228.37 km
Perigee altitude
1,012.846 km
Semi-major axis
7,998.745 km
Eccentricity
0.07598
Inclination
69.187°
RAAN
97.5296°
Arg. of periapsis
50.4771°
True anomaly
309.62571°
Mean anomaly
316.0922°
Eccentric anomaly
312.90327°
Mean motion
3.03396 °/min
Orbital period
118.66 mins
BSTAR
0.00058808
Loading maneuver chart data...
Computing Atmospheric mass density...
Loading historical data...
Loading historical data...
Loading historical data...
Loading historical data...
Loading historical data...
Loading historical data...
Loading historical data...

Documentation

Showing up to 5 results
|